FW5392 Weather Reports


time (UTC)temp
F
wind
direction
speed
knots
gust
knots
rain 1hr
in
rain 24hr
in
rain mn
in
humidity
%
barometer
mb
20260507234509 65 349 0.0 0.9 0.00 0.00 0.00 84 1014.7
20260507234039 65 30 0.0 3.5 0.00 0.00 0.00 86 1014.6
20260507233556 64 30 0.0 4.3 0.00 0.00 0.00 86 1014.7
20260507233004 65 15 1.7 4.3 0.00 0.00 0.00 85 1014.8
20260507232521 65 15 0.0 2.6 0.00 0.00 0.00 86 1015.0
20260507232049 65 15 0.0 3.5 0.00 0.00 0.00 86 1014.9
20260507231602 65 16 0.9 3.5 0.00 0.00 0.00 86 1015.0
20260507231016 65 15 1.7 3.5 0.00 0.00 0.00 86 1015.0
20260507230542 65 15 0.0 2.6 0.00 0.00 0.00 86 1015.0
20260507230105 65 15 0.0 2.6 0.00 0.00 0.00 86 1015.1
20260507225509 65 345 0.0 1.7 0.00 0.00 0.00 86 1015.1
20260507225044 65 9 0.0 3.5 0.00 0.00 0.00 86 1015.0
20260507224555 65 14 1.7 3.5 0.00 0.00 0.00 85 1015.2
20260507224004 65 9 0.0 2.6 0.00 0.00 0.00 85 1015.2
20260507223521 65 9 0.0 1.7 0.00 0.00 0.00 85 1015.2
20260507223049 65 314 0.0 1.7 0.00 0.00 0.00 85 1015.2
20260507222606 65 300 0.0 0.9 0.00 0.00 0.00 85 1015.2
20260507222014 65 300 0.0 0.0 0.00 0.00 0.00 87 1015.2
20260507221542 64 300 0.0 0.0 0.00 0.00 0.00 87 1015.2
20260507221101 64 300 0.0 0.0 0.00 0.00 0.00 87 1015.1
20260507220515 65 300 0.0 0.0 0.00 0.00 0.00 86 1015.1
20260507220044 65 300 0.0 0.0 0.00 0.00 0.00 86 1015.0
20260507215554 65 300 0.0 0.0 0.00 0.00 0.00 87 1015.0
20260507215006 65 294 0.0 0.0 0.00 0.00 0.00 87 1015.0
20260507214552 64 294 0.0 0.0 0.00 0.00 0.00 88 1015.0
20260507214052 64 294 0.0 1.7 0.00 0.00 0.00 87 1015.0
20260507213509 64 294 0.0 1.7 0.00 0.00 0.00 87 1015.2
20260507213024 64 115 0.0 0.0 0.00 0.00 0.00 87 1015.2
20260507212557 64 114 0.0 0.0 0.00 0.00 0.00 87 1015.1
20260507212010 65 114 0.0 0.0 0.00 0.00 0.00 87 1015.3
20260507211540 65 114 0.0 0.0 0.00 0.00 0.00 87 1015.3
20260507211059 65 114 0.0 0.0 0.00 0.00 0.00 86 1015.1
20260507210512 65 114 0.0 0.0 0.00 0.00 0.00 86 1015.2
20260507210051 65 114 0.0 0.0 0.00 0.00 0.00 86 1015.3
20260507205608 65 114 0.0 0.0 0.00 0.00 0.00 86 1015.2
20260507205018 65 114 0.0 0.0 0.00 0.00 0.00 86 1015.2
20260507204547 65 114 0.0 0.0 0.00 0.00 0.00 86 1015.2
20260507204107 65 114 0.0 0.0 0.00 0.00 0.00 86 1015.2
20260507203532 65 114 0.0 0.0 0.00 0.00 0.00 86 1015.2
20260507203052 65 114 0.0 0.0 0.00 0.00 0.00 86 1015.4
20260507202603 65 114 0.0 0.0 0.00 0.00 0.00 86 1015.4
20260507202015 65 114 0.0 0.0 0.00 0.00 0.00 86 1015.4
20260507201547 65 114 0.0 0.0 0.00 0.00 0.00 86 1015.5
20260507201106 65 114 0.0 0.0 0.00 0.00 0.00 85 1015.4
20260507200512 65 115 0.0 0.0 0.00 0.00 0.00 85 1015.5
20260507200044 65 114 0.0 0.0 0.00 0.00 0.00 85 1015.4
20260507195555 65 114 0.0 0.0 0.00 0.00 0.00 85 1015.4
20260507195006 66 114 0.0 0.0 0.00 0.00 0.00 83 1015.5
20260507194605 66 114 0.0 0.0 0.00 0.00 0.00 84 1015.4
20260507194045 66 115 0.0 0.0 0.00 0.00 0.00 84 1015.4
20260507193606 66 114 0.0 0.0 0.00 0.00 0.00 83 1015.2
20260507193014 66 114 0.0 0.0 0.00 0.00 0.00 84 1015.1
20260507192544 66 114 0.0 0.0 0.00 0.00 0.00 84 1015.0
20260507192101 66 114 0.0 0.0 0.00 0.00 0.00 84 1015.2
20260507191512 65 114 0.0 0.0 0.00 0.00 0.00 84 1015.0
20260507191041 65 114 0.0 0.0 0.00 0.00 0.00 84 1015.1
20260507190555 65 114 0.0 0.0 0.00 0.00 0.00 84 1015.0
20260507190005 65 114 0.0 0.0 0.00 0.00 0.00 83 1015.0
20260507185521 66 114 0.0 0.0 0.00 0.00 0.00 82 1014.8
20260507185051 66 114 0.0 0.0 0.00 0.00 0.00 81 1014.8
20260507184514 67 114 0.0 0.9 0.00 0.00 0.00 81 1014.9
20260507184033 67 114 0.0 0.9 0.00 0.00 0.00 81 1015.0
20260507183549 67 114 0.0 0.9 0.00 0.00 0.00 80 1014.9
20260507183105 67 114 0.0 2.6 0.00 0.00 0.00 81 1014.9
20260507182510 67 108 0.0 2.6 0.00 0.00 0.00 79 1015.0
20260507182021 67 75 0.0 0.9 0.00 0.00 0.00 79 1014.8
20260507181546 68 44 0.0 0.0 0.00 0.00 0.00 78 1014.9
20260507181102 68 44 0.0 0.0 0.00 0.00 0.00 78 1015.0
20260507180512 68 44 0.0 0.0 0.00 0.00 0.00 78 1014.8
20260507180044 68 44 0.0 0.0 0.00 0.00 0.00 77 1014.9
20260507175602 68 44 0.0 0.0 0.00 0.00 0.00 77 1014.9
20260507175009 68 45 0.0 0.0 0.00 0.00 0.00 76 1015.0
20260507174544 68 44 0.0 0.0 0.00 0.00 0.00 75 1014.8
20260507174052 69 45 0.0 0.0 0.00 0.00 0.00 74 1014.8
20260507173503 70 45 0.0 0.0 0.00 0.00 0.00 73 1014.8
20260507173020 70 45 0.0 0.0 0.00 0.00 0.00 72 1014.7
20260507172549 70 45 0.0 0.0 0.00 0.00 0.00 72 1014.7
20260507172101 71 44 0.0 0.0 0.00 0.00 0.00 71 1014.5
20260507171510 72 45 0.0 0.0 0.00 0.00 0.00 70 1014.5
20260507171024 72 44 0.0 0.9 0.00 0.00 0.00 69 1014.5
20260507170554 72 45 0.0 0.9 0.00 0.00 0.00 69 1014.4
20260507170113 72 44 0.0 2.6 0.00 0.00 0.00 69 1014.5
20260507165514 73 45 0.9 3.5 0.00 0.00 0.00 69 1014.5
20260507165042 73 45 0.0 3.5 0.00 0.00 0.00 68 1014.6
20260507164605 73 110 0.0 1.7 0.00 0.00 0.00 68 1014.5
20260507164002 73 108 0.0 1.7 0.00 0.00 0.00 68 1014.5
20260507163520 73 110 0.0 1.7 0.00 0.00 0.00 68 1014.5
20260507163044 73 80 0.0 1.7 0.00 0.00 0.00 68 1014.5
20260507162558 73 71 0.0 1.7 0.00 0.00 0.00 66 1014.5
20260507162004 74 108 0.0 1.7 0.00 0.00 0.00 65 1014.5
20260507161536 74 14 0.0 1.7 0.00 0.00 0.00 64 1014.4
20260507161045 75 71 0.0 1.7 0.00 0.00 0.00 63 1014.4
20260507160600 75 81 0.0 0.9 0.00 0.00 0.00 64 1014.6
20260507160004 76 31 0.0 0.9 0.00 0.00 0.00 64 1014.6
20260507155518 75 31 0.0 2.6 0.00 0.00 0.00 63 1014.6
20260507155049 75 31 0.0 2.6 0.00 0.00 0.00 63 1014.5
20260507154607 75 30 0.0 2.6 0.00 0.00 0.00 64 1014.5
20260507154008 75 30 0.0 3.5 0.00 0.00 0.00 65 1014.5
20260507153519 75 30 0.9 3.5 0.00 0.00 0.00 65 1014.4
20260507153048 75 24 0.0 2.6 0.00 0.00 0.00 66 1014.4
20260507152602 75 29 0.9 2.6 0.00 0.00 0.00 65 1014.5
20260507152009 75 32 0.0 1.7 0.00 0.00 0.00 66 1014.5
20260507151537 74 31 0.0 1.7 0.00 0.00 0.00 67 1014.5
20260507151049 74 31 0.0 3.5 0.00 0.00 0.00 67 1014.5
20260507150603 74 32 0.0 1.7 0.00 0.00 0.00 67 1014.6
20260507150013 74 24 0.0 3.5 0.00 0.00 0.00 67 1014.5
20260507145540 74 32 0.0 3.5 0.00 0.00 0.00 67 1014.6
20260507145056 74 42 0.0 1.7 0.00 0.00 0.00 68 1014.4
20260507144502 73 42 0.0 2.6 0.00 0.00 0.00 67 1014.6
20260507144016 74 41 0.0 3.5 0.00 0.00 0.00 66 1014.6
20260507143544 74 39 0.9 3.5 0.00 0.00 0.00 66 1014.7
20260507143110 75 38 0.9 3.5 0.00 0.00 0.00 66 1014.7
20260507142504 76 18 0.0 2.6 0.00 0.00 0.00 65 1014.7
20260507142018 75 134 0.0 1.7 0.00 0.00 0.00 66 1014.6
20260507141546 75 134 0.0 2.6 0.00 0.00 0.00 66 1014.6
20260507141102 75 108 0.0 2.6 0.00 0.00 0.00 67 1014.8
20260507140507 75 108 0.0 3.5 0.00 0.00 0.00 67 1014.8
20260507140038 74 44 1.7 3.5 0.00 0.00 0.00 67 1014.7
20260507135550 75 44 0.0 5.2 0.00 0.00 0.00 67 1014.7
20260507135101 75 44 1.7 5.2 0.00 0.00 0.00 66 1014.6
20260507134508 75 51 0.0 4.3 0.00 0.00 0.00 67 1014.7
20260507134035 74 58 0.0 2.6 0.00 0.00 0.00 68 1014.7
20260507133549 74 39 0.0 3.5 0.00 0.00 0.00 68 1014.6
20260507133110 74 32 0.9 4.3 0.00 0.00 0.00 67 1014.7
20260507132510 74 34 0.9 4.3 0.00 0.00 0.00 67 1014.9
20260507132037 74 32 0.0 1.7 0.00 0.00 0.00 67 1014.8
20260507131609 74 108 0.0 3.5 0.00 0.00 0.00 67 1014.9
20260507131106 74 24 0.0 4.3 0.00 0.00 0.00 67 1014.9
20260507130512 75 24 0.0 2.6 0.00 0.00 0.00 67 1014.9
20260507130042 74 20 0.9 2.6 0.00 0.00 0.00 67 1014.8
20260507125556 74 57 0.0 3.5 0.00 0.00 0.00 67 1014.9
20260507125003 75 50 1.7 3.5 0.00 0.00 0.00 66 1014.9
20260507124521 74 37 0.0 4.3 0.00 0.00 0.00 67 1014.8
20260507124045 74 32 1.7 4.3 0.00 0.00 0.00 66 1014.8
20260507123600 75 51 1.7 3.5 0.00 0.00 0.00 65 1014.9
20260507123005 75 51 0.9 3.5 0.00 0.00 0.00 65 1015.0
20260507122536 75 65 0.0 5.2 0.00 0.00 0.00 66 1015.0
20260507122049 75 38 0.9 5.2 0.00 0.00 0.00 65 1015.0
20260507121603 75 44 0.9 4.3 0.00 0.00 0.00 65 1015.1
20260507121010 75 99 0.9 2.6 0.00 0.00 0.00 64 1015.1
20260507120537 75 108 0.9 3.5 0.00 0.00 0.00 64 1015.0
20260507120053 76 108 0.0 3.5 0.00 0.00 0.00 64 1015.1
20260507115501 75 49 0.0 2.6 0.00 0.00 0.00 65 1015.2
20260507115020 75 43 0.9 3.5 0.00 0.00 0.00 66 1015.0
20260507114547 74 44 0.9 3.5 0.00 0.00 0.00 66 1015.0
20260507114101 74 44 0.0 3.5 0.00 0.00 0.00 66 1015.0
20260507113510 74 44 0.9 4.3 0.00 0.00 0.00 67 1015.1
20260507113041 74 32 2.6 4.3 0.00 0.00 0.00 66 1015.2
20260507112600 74 58 0.0 4.3 0.00 0.00 0.00 67 1015.0
20260507112005 73 31 0.9 4.3 0.00 0.00 0.00 68 1014.9
20260507111533 73 18 2.6 5.2 0.00 0.00 0.00 67 1015.1
20260507111051 73 44 2.6 5.2 0.00 0.00 0.00 68 1015.1
20260507110603 73 18 0.0 4.3 0.00 0.00 0.00 70 1015.1
20260507110012 72 18 1.7 4.3 0.00 0.00 0.00 70 1015.2
20260507105539 72 31 0.9 5.2 0.00 0.00 0.00 72 1015.1
20260507105053 71 27 1.7 6.1 0.00 0.00 0.00 70 1015.2
20260507104607 72 23 2.6 6.1 0.00 0.00 0.00 72 1015.3
20260507104015 71 35 3.5 6.1 0.00 0.00 0.00 72 1015.3
20260507103541 72 32 2.6 5.2 0.00 0.00 0.00 71 1015.3
20260507103058 72 27 0.9 4.3 0.00 0.00 0.00 71 1015.1
20260507102505 72 32 1.7 4.3 0.00 0.00 0.00 72 1015.1
20260507102037 71 26 1.7 5.2 0.00 0.00 0.00 73 1015.1
20260507101555 71 359 1.7 5.2 0.00 0.00 0.00 73 1015.1
20260507101108 71 359 2.6 6.1 0.00 0.00 0.00 72 1015.1
20260507100515 72 23 3.5 6.1 0.00 0.00 0.00 72 1015.1
20260507100047 72 32 2.6 6.1 0.00 0.00 0.00 72 1015.0
20260507095605 72 32 2.6 7.0 0.00 0.00 0.00 72 1015.2
20260507095015 72 29 4.3 7.0 0.00 0.00 0.00 72 1015.1
20260507094546 72 24 2.6 6.1 0.00 0.00 0.00 73 1015.1
20260507094105 71 38 2.6 6.1 0.00 0.00 0.00 74 1015.1
20260507093511 71 32 2.6 6.1 0.00 0.00 0.00 74 1015.2
20260507093048 71 31 3.5 6.1 0.00 0.00 0.00 73 1015.3
20260507092557 71 32 2.6 7.0 0.00 0.00 0.00 75 1015.3
20260507092005 71 18 3.5 7.0 0.00 0.00 0.00 74 1015.3
20260507091526 71 32 1.7 6.1 0.00 0.00 0.00 74 1015.2
20260507091054 70 30 2.6 6.1 0.00 0.00 0.00 74 1015.3
20260507090607 70 18 2.6 5.2 0.00 0.00 0.00 74 1015.2
20260507090013 70 29 1.7 6.1 0.00 0.00 0.00 74 1015.2
20260507085541 70 49 2.6 6.1 0.00 0.00 0.00 74 1015.1
20260507085056 70 30 2.6 6.1 0.00 0.00 0.00 74 1015.2
20260507084501 70 30 2.6 6.1 0.00 0.00 0.00 74 1015.3
20260507084033 70 30 2.6 6.1 0.00 0.00 0.00 74 1015.2
20260507083543 69 30 2.6 6.1 0.00 0.00 0.00 75 1015.2
20260507083101 69 15 1.7 5.2 0.00 0.00 0.00 75 1015.2
20260507082504 69 24 2.6 5.2 0.00 0.00 0.00 75 1015.1
20260507082032 68 23 0.9 6.1 0.00 0.00 0.00 76 1015.3
20260507081545 68 38 3.5 6.1 0.00 0.00 0.00 76 1015.2
20260507081059 68 15 1.7 7.0 0.00 0.00 0.00 75 1015.2
20260507080507 68 30 2.6 5.2 0.00 0.00 0.00 76 1015.0
20260507080039 68 350 1.7 5.2 0.00 0.00 0.00 76 1014.9
20260507075547 68 30 2.6 4.3 0.00 0.00 0.00 76 1014.9
20260507075105 68 24 0.9 5.2 0.00 0.00 0.00 76 1014.7
20260507074511 68 8 0.9 7.0 0.00 0.00 0.00 75 1014.7
20260507074040 69 6 2.6 7.0 0.00 0.00 0.00 75 1014.7
20260507073554 69 23 1.7 7.0 0.00 0.00 0.00 75 1014.8
20260507073107 69 20 2.6 7.0 0.00 0.00 0.00 75 1014.8
20260507072515 69 13 4.3 7.0 0.00 0.00 0.00 75 1014.8
20260507072043 68 15 1.7 5.2 0.00 0.00 0.00 75 1014.8
20260507071610 68 354 1.7 6.1 0.00 0.00 0.00 76 1014.9
20260507071007 68 23 2.6 5.2 0.00 0.00 0.00 76 1014.9
20260507070537 68 24 2.6 5.2 0.00 0.00 0.00 76 1014.9
20260507070052 68 15 1.7 5.2 0.00 0.00 0.00 77 1015.0
20260507065608 68 4 0.9 5.2 0.00 0.00 0.00 77 1014.7
20260507065028 68 2 0.0 6.1 0.00 0.00 0.00 79 1014.7
20260507064539 67 9 2.6 6.1 0.00 0.00 0.00 79 1014.7
20260507064053 67 255 0.0 4.3 0.00 0.00 0.00 80 1014.8
20260507063608 66 255 1.7 5.2 0.00 0.00 0.00 80 1014.6
20260507063013 66 314 2.6 5.2 0.00 0.00 0.00 81 1014.6
20260507062543 66 264 0.9 4.3 0.00 0.00 0.00 83 1014.6
20260507062057 65 288 0.9 5.2 0.00 0.00 0.00 83 1014.6
20260507061507 65 15 1.7 5.2 0.00 0.00 0.00 83 1014.7
20260507061022 65 342 0.0 4.3 0.00 0.00 0.00 84 1014.8
20260507060551 65 4 0.0 3.5 0.00 0.00 0.00 84 1014.8
20260507060110 65 294 0.9 4.3 0.00 0.00 0.00 84 1014.7
20260507055507 65 266 0.9 5.2 0.00 0.00 0.00 84 1014.7
20260507055037 65 307 0.9 5.2 0.00 0.00 0.00 84 1014.6
20260507054553 65 290 1.7 4.3 0.00 0.00 0.00 84 1014.6
20260507054001 65 315 0.9 5.2 0.00 0.00 0.00 85 1014.4
20260507053534 64 358 1.7 5.2 0.00 0.00 0.00 84 1014.5
20260507053114 64 255 1.7 5.2 0.00 0.00 0.00 84 1014.4
20260507052604 64 288 2.6 7.0 0.00 0.00 0.00 84 1014.3
20260507052014 64 307 1.7 6.1 0.00 0.00 0.00 85 1014.1
20260507051545 64 294 1.7 5.2 0.00 0.00 0.00 85 1013.9
20260507051058 64 240 1.7 4.3 0.00 0.00 0.00 84 1014.0
20260507050507 64 293 2.6 4.3 0.00 0.00 0.00 84 1013.9
20260507050040 64 288 0.9 6.1 0.00 0.00 0.00 84 1013.7
20260507045559 64 255 3.5 6.1 0.00 0.00 0.00 84 1013.7
20260507045009 64 300 0.9 5.2 0.00 0.00 0.00 85 1013.6
20260507044540 64 265 0.9 7.0 0.00 0.00 0.00 85 1013.6
20260507044054 64 307 1.7 7.0 0.00 0.00 0.00 85 1013.5
20260507043501 64 314 1.7 4.3 0.00 0.00 0.00 85 1013.4
20260507043036 64 288 1.7 5.2 0.00 0.00 0.00 85 1013.5
20260507042545 64 15 0.9 4.3 0.00 0.00 0.00 85 1013.4
20260507042104 64 271 0.9 4.3 0.00 0.00 0.00 84 1013.4
20260507041513 64 293 0.9 4.3 0.00 0.00 0.00 83 1013.3
20260507041046 64 285 1.7 4.3 0.00 0.00 0.00 83 1013.3
20260507040559 64 294 0.9 4.3 0.00 0.00 0.00 83 1013.2
20260507040009 64 17 0.0 5.2 0.00 0.00 0.00 82 1013.1
20260507035538 64 342 1.7 6.1 0.00 0.00 0.00 81 1013.0
20260507035056 65 294 1.7 6.1 0.00 0.00 0.00 81 1013.0
20260507034505 65 223 1.7 6.1 0.00 0.00 0.00 80 1012.9
20260507034019 65 288 0.9 6.1 0.00 0.00 0.00 80 1012.9
20260507033549 64 294 1.7 4.3 0.00 0.00 0.00 79 1012.9
20260507033107 64 285 1.7 6.1 0.00 0.00 0.00 79 1012.9
20260507032512 64 338 0.9 6.1 0.00 0.00 0.00 80 1012.9
20260507032045 64 307 1.7 4.3 0.00 0.00 0.00 80 1012.9
20260507031559 64 288 1.7 5.2 0.00 0.00 0.00 80 1012.8
20260507031013 64 294 0.9 5.2 0.00 0.00 0.00 80 1012.9
20260507030539 64 265 1.7 4.3 0.00 0.00 0.00 80 1012.7
20260507030057 64 11 0.0 3.5 0.00 0.00 0.00 80 1012.5
20260507025507 64 15 0.9 3.5 0.00 0.00 0.00 81 1012.6
20260507025044 64 335 0.0 1.7 0.00 0.00 0.00 81 1012.5
20260507024603 64 285 0.0 3.5 0.00 0.00 0.00 82 1012.4
20260507024006 63 294 0.0 3.5 0.00 0.00 0.00 83 1012.5
20260507023536 63 294 0.0 4.3 0.00 0.00 0.00 84 1012.5
20260507023053 63 294 1.7 4.3 0.00 0.00 0.00 86 1012.4
20260507022502 63 294 0.0 2.6 0.00 0.00 0.00 87 1012.3
20260507022019 63 314 0.9 3.5 0.00 0.00 0.00 88 1012.5
20260507021549 63 293 0.9 4.3 0.00 0.00 0.00 88 1012.4
20260507021107 63 294 0.9 5.2 0.00 0.00 0.00 88 1012.3
20260507020514 64 294 0.9 5.2 0.00 0.00 0.00 88 1012.2
20260507020045 64 342 1.7 4.3 0.00 0.00 0.00 88 1012.2
20260507015605 64 9 0.9 6.1 0.00 0.00 0.00 88 1012.2
20260507015021 64 4 1.7 6.1 0.00 0.00 0.00 88 1012.3
20260507014551 64 3 2.6 6.1 0.00 0.00 0.00 88 1012.2
20260507014059 64 15 1.7 6.1 0.00 0.00 0.00 88 1012.2
20260507013508 64 342 1.7 6.1 0.00 0.00 0.00 88 1012.3
20260507013038 64 96 2.6 6.1 0.00 0.00 0.00 88 1012.2
20260507012558 64 351 1.7 4.3 0.00 0.00 0.00 88 1012.0
20260507012005 64 2 1.7 7.0 0.00 0.00 0.00 87 1012.0
20260507011539 64 328 1.7 7.0 0.00 0.00 0.00 88 1012.0
20260507011050 64 338 1.7 5.2 0.00 0.00 0.00 88 1012.0
20260507010610 64 340 2.6 5.2 0.00 0.00 0.00 88 1011.9
20260507010022 63 335 0.9 3.5 0.00 0.00 0.00 88 1012.0
20260507005545 63 319 0.0 2.6 0.00 0.00 0.00 88 1012.0
20260507005100 64 15 0.9 2.6 0.00 0.00 0.00 88 1012.0
20260507004508 64 307 0.0 3.5 0.00 0.00 0.00 88 1012.0
20260507004039 64 6 0.0 3.5 0.00 0.00 0.00 88 1012.0
20260507003555 64 3 0.0 4.3 0.00 0.00 0.00 88 1012.0
20260507003003 64 9 0.9 4.3 0.00 0.00 0.00 88 1012.1
20260507002532 64 7 0.9 4.3 0.00 0.00 0.00 88 1012.2
20260507002049 64 321 0.0 2.6 0.00 0.00 0.00 88 1012.1
20260507001605 64 1 0.0 3.5 0.00 0.00 0.00 88 1012.1
20260507001014 63 15 0.0 3.5 0.00 0.00 0.00 88 1012.1
20260507000540 63 4 0.0 1.7 0.00 0.00 0.00 88 1012.1
20260507000055 63 8 0.0 1.7 0.00 0.00 0.00 89 1012.2
20260506235505 63 8 0.0 1.7 0.00 0.00 0.00 89 1012.2